Weather History for Grand Canyon, AZ

Change the Weather History Date:

Wednesday, November 7, 2012

  Actual Average Record
Temperature  
Mean Temperature 46 °F -  
Max Temperature 69 °F 51 °F 71 °F (2007)
Min Temperature 23 °F 22 °F 12 °F (1996)
Degree Days  
Heating Degree Days 19    
Moisture  
Dew Point 14 °F    
Average Humidity 38    
Maximum Humidity 63    
Minimum Humidity 12    
Precipitation  
Precipitation 0.00 in - - ()
Sea Level Pressure  
Sea Level Pressure 30.13 in    
Wind  
Wind Speed 2 mph (SW)    
Max Wind Speed 12 mph    
Max Gust Speed 23 mph    
Visibility 10 miles    
Events      
Averages and records for this station are not official NWS values.
T = Trace of Precipitation, MM = Missing Value Source: NWS Daily Summary

Daily Weather History Graph

Daily Weather History Graph

Search for Another Location

Airport:

Trip Planner

Search our weather history database for the weather conditions in past years. The results will help you decide how hot, cold, wet, or windy it might be!

Date:

Astronomy

Nov. 07, 2012 Rise Set
Actual Time 6:57 AM MST 5:26 PM MST
Civil Twilight 6:30 AM MST 5:53 PM MST
Nautical Twilight 6:00 AM MST 6:24 PM MST
Astronomical Twilight 5:29 AM MST 6:54 PM MST
Moon 12:08 AM MST (11/7) 1:26 PM MST (11/7)
Length of Visible Light 11h 22m
Length of Day
10h 29m
Last Quarter, 42% of the Moon is Illuminated
Nov 7
Last Quarter
Nov 13
New
Nov 20
First Quarter
Nov 28
Full
Dec 6
Last Quarter

Hourly Weather History & Observations

Time (MST) Temp. Dew Point Humidity Pressure Visibility Wind Dir Wind Speed Gust Speed Precip Events Conditions
12:54 AM 27.0 °F 12.0 °F 53% 30.17 in 10.0 mi Calm Calm - N/A   Clear
1:54 AM 27.0 °F 12.9 °F 56% 30.17 in 10.0 mi Calm Calm - N/A   Clear
2:54 AM 26.1 °F 12.9 °F 58% 30.16 in 10.0 mi Calm Calm - N/A   Clear
3:54 AM 25.0 °F 12.9 °F 60% 30.16 in 10.0 mi Calm Calm - N/A   Clear
4:54 AM 24.1 °F 12.0 °F 60% 30.18 in 10.0 mi Calm Calm - N/A   Clear
5:54 AM 24.1 °F 12.0 °F 60% 30.23 in 10.0 mi Calm Calm - N/A   Clear
6:54 AM 23.0 °F 12.0 °F 63% 30.29 in 10.0 mi Calm Calm - N/A   Clear
7:54 AM 30.0 °F 15.1 °F 54% 30.30 in 10.0 mi Calm Calm - N/A   Clear
8:54 AM 53.1 °F 19.9 °F 27% 30.21 in 10.0 mi Calm Calm - N/A   Clear
9:54 AM 63.0 °F 18.0 °F 18% 30.15 in 10.0 mi SSW 4.6 mph - N/A   Clear
10:54 AM 64.9 °F 19.0 °F 17% 30.15 in 10.0 mi SW 9.2 mph - N/A   Clear
11:54 AM 66.9 °F 19.0 °F 16% 30.11 in 10.0 mi Variable 5.8 mph 16.1 mph N/A   Clear
12:54 PM 69.1 °F 16.0 °F 13% 30.08 in 10.0 mi SW 11.5 mph 20.7 mph N/A   Clear
1:54 PM 69.1 °F 14.0 °F 12% 30.06 in 10.0 mi SW 11.5 mph 23.0 mph N/A   Clear
2:54 PM 69.1 °F 14.0 °F 12% 30.04 in 10.0 mi SW 10.4 mph 21.9 mph N/A   Clear
4:54 PM 64.9 °F 12.0 °F 13% 30.04 in 10.0 mi SW 10.4 mph - N/A   Clear
5:54 PM 50.0 °F 14.0 °F 24% 30.11 in 10.0 mi Calm Calm - N/A   Clear
6:54 PM 44.1 °F 14.0 °F 30% 30.14 in 10.0 mi Calm Calm - N/A   Clear
7:54 PM 37.0 °F 12.0 °F 36% 30.14 in 10.0 mi Calm Calm - N/A   Clear
8:54 PM 30.9 °F 9.0 °F 40% 30.09 in 10.0 mi Calm Calm - N/A   Clear
9:54 PM 30.0 °F 10.0 °F 43% 30.04 in 10.0 mi Calm Calm - N/A   Clear
10:54 PM 28.9 °F 10.9 °F 47% 30.03 in 10.0 mi Calm Calm - N/A   Clear
11:54 PM 28.0 °F 12.0 °F 51% 30.01 in 10.0 mi Calm Calm - N/A   Clear